Flag for Canada Weather past 2 weeks in Fort Simpson, Northwest Territories, Canada

Now
55 °F

Passing clouds.


Feels Like: 55 °F
Forecast: 55 / 82 °F
Wind: 3 mph from Northwest

Location: Fort Simpson

Current Time: Jul 25, 2014 at 3:38:09 AM

Latest Report: Jul 25, 2014 at 3:00 AM


Visibility: 15 mi

Pressure: 29.69 "Hg

Humidity: 72%

Dew point: 46 °F

Location of Fort SimpsonLocation

Historic Weather in Fort Simpson — Graph

°F

Fort Simpson temperature yesterday

Maximum temperature yesterday: 82 °F (at 5:00 PM)
Minimum temperature yesterday: 61 °F (at 6:00 AM)
Average temperature yesterday: 72 °F

Past Weeks' High & Low Weather Summary

 TemperatureHumidityPressure
High97 °F (Jul 13, 6:00 PM)100% (Jul 16, 11:00 AM)30.03 "Hg (Jul 16, 11:00 AM)
Low45 °F (Jul 11, 5:00 AM)26% (Jul 13, 4:00 PM)29.51 "Hg (Jul 18, 9:00 PM)
Average69 °F61%29.81 "Hg
* Reported Jul 10 2:00 AM — Jul 25 2:00 AM, Fort Simpson, Weather by CustomWeather, © 2014

Note: Actual official high and low records may vary slightly from our data, if they occured in-between our weather recording intervals... More about our weather records

Advertising

Fort Simpson weather history for previous 24 hours

 ConditionsComfort  
Time TempWeatherWind HumidityBarometerVisibility
2:00 AM
Jul 25
55 °FPassing clouds.5 mph77%29.68 "Hg15 mi
1:00 AM59 °FPassing clouds.No wind77%29.67 "Hg15 mi
12:00 AM63 °FPassing clouds.No wind68%29.65 "Hg15 mi
11:00 PM
Jul 24
70 °FPassing clouds.No wind57%29.65 "Hg15 mi
10:00 PM75 °FPassing clouds.No wind44%29.64 "Hg15 mi
9:00 PM81 °FPassing clouds.3 mph42%29.63 "Hg15 mi
8:00 PM81 °FPassing clouds.No wind42%29.62 "Hg15 mi
7:00 PM81 °FPassing clouds.5 mph45%29.62 "Hg15 mi
6:00 PM81 °FScattered clouds.6 mph42%29.62 "Hg15 mi
5:00 PM82 °FPassing clouds.10 mph40%29.61 "Hg15 mi
4:00 PM81 °FPassing clouds.6 mph42%29.62 "Hg15 mi
3:00 PM81 °FPassing clouds.7 mph42%29.62 "Hg15 mi
2:00 PM77 °FPassing clouds.6 mph44%29.63 "Hg15 mi
1:00 PM77 °FPassing clouds.12 mph44%29.64 "Hg15 mi
12:00 PM75 °FPassing clouds.12 mph47%29.63 "Hg15 mi
11:00 AM73 °FPassing clouds.7 mph47%29.63 "Hg15 mi
10:00 AM70 °FPassing clouds.9 mph53%29.63 "Hg15 mi
9:00 AM68 °FPassing clouds.8 mph53%29.63 "Hg15 mi
8:00 AM64 °FPassing clouds.5 mph60%29.64 "Hg15 mi
7:00 AM61 °FPassing clouds.7 mph63%29.64 "Hg15 mi
6:00 AM61 °FPassing clouds.8 mph63%29.65 "Hg15 mi
5:00 AM64 °FPassing clouds.6 mph56%29.65 "Hg15 mi
4:00 AM64 °FPassing clouds.6 mph52%29.66 "Hg15 mi
3:00 AM66 °FPartly cloudy.6 mph52%29.67 "Hg15 mi
Weather by CustomWeather, © 2014

See weather overviewHow to use our weather pages